Weather History for Blair, NE

Change the Weather History Date:

Friday, August 23, 2013

  Actual Average (KOMA) Record (KOMA)
Temperature  
Mean Temperature 78 °F 74 °F  
Max Temperature 88 °F 84 °F 102 °F (1975)
Min Temperature 68 °F 63 °F 44 °F (1891)
Degree Days  
Heating Degree Days 0 0  
Month to date heating degree days 0  
Since 1 June heating degree days 18  
Since 1 July heating degree days 1  
Cooling Degree Days 13 9  
Month to date cooling degree days 237  
Year to date cooling degree days 914  
Since 1 June cooling degree days 832  
Growing Degree Days 28 (Base 50)    
Moisture  
Dew Point 67 °F    
Average Humidity 72    
Maximum Humidity 92    
Minimum Humidity 48    
Precipitation  
Precipitation 0.00 in 0.12 in 2.20 in (1895)
Month to date precipitation 2.92  
Year to date precipitation 22.21  
Snow  
Snow 0.00 in 0.00 in - ()
Month to date snowfall 0.0  
Since 1 July snowfall 0.0  
Snow Depth -    
Sea Level Pressure  
Sea Level Pressure 30.05 in    
Wind  
Wind Speed 6 mph (SE)    
Max Wind Speed 16 mph    
Max Gust Speed 20 mph    
Visibility 10 miles    
Events      
T = Trace of Precipitation, MM = Missing Value Source: NWS Daily Summary

Daily Weather History Graph

Daily Weather History Graph

Search for Another Location

Airport:

Trip Planner

Search our weather history database for the weather conditions in past years. The results will help you decide how hot, cold, wet, or windy it might be!

Date:

Astronomy

Aug. 23, 2013 Rise Set
Actual Time 6:41 AM CDT 8:11 PM CDT
Civil Twilight 6:12 AM CDT 8:40 PM CDT
Nautical Twilight 5:37 AM CDT 9:15 PM CDT
Astronomical Twilight 5:00 AM CDT 9:52 PM CDT
Moon 9:27 PM CDT (8/23) 9:41 AM CDT (8/23)
Length of Visible Light 14h 27m
Length of Day
13h 29m
Waning Gibbous, 91% of the Moon is Illuminated
Aug 23
Waning Gibbous
Aug 28
Last Quarter
Sep 5
New
Sep 12
First Quarter
Sep 19
Full

Hourly Weather History & Observations

Time (CDT) Temp. Heat Index Dew Point Humidity Pressure Visibility Wind Dir Wind Speed Gust Speed Precip Events Conditions
12:15 AM 71.2 °F - 66.2 °F 84% 30.09 in 10.0 mi East 4.6 mph - N/A   Clear
12:35 AM 70.7 °F - 65.7 °F 84% 30.08 in 10.0 mi East 5.8 mph - N/A   Clear
12:55 AM 70.3 °F - 65.7 °F 85% 30.09 in 10.0 mi Calm Calm - N/A   Mostly Cloudy
1:15 AM 70.7 °F - 66.0 °F 85% 30.08 in 10.0 mi Calm Calm - N/A   Overcast
1:35 AM 70.9 °F - 66.2 °F 85% 30.09 in 10.0 mi Calm Calm - N/A   Overcast
1:55 AM 70.7 °F - 66.2 °F 86% 30.08 in 10.0 mi Calm Calm - N/A   Overcast
2:15 AM 70.9 °F - 66.4 °F 86% 30.08 in 10.0 mi ESE 4.6 mph - N/A   Overcast
2:35 AM 70.9 °F - 66.4 °F 86% 30.08 in 10.0 mi Calm Calm - N/A   Overcast
2:55 AM 70.7 °F - 66.4 °F 86% 30.08 in 10.0 mi SE 3.5 mph - N/A   Mostly Cloudy
3:15 AM 70.9 °F - 66.4 °F 86% 30.08 in 10.0 mi East 3.5 mph - N/A   Scattered Clouds
3:35 AM 70.5 °F - 66.4 °F 87% 30.08 in 10.0 mi East 3.5 mph - N/A   Mostly Cloudy
3:55 AM 70.3 °F - 66.4 °F 87% 30.08 in 10.0 mi East 3.5 mph - N/A   Overcast
4:15 AM 69.8 °F - 66.2 °F 88% 30.08 in 10.0 mi East 3.5 mph - N/A   Mostly Cloudy
4:35 AM 69.4 °F - 66.2 °F 89% 30.08 in 10.0 mi East 4.6 mph - N/A   Mostly Cloudy
4:55 AM 69.4 °F - 66.4 °F 90% 30.08 in 10.0 mi ENE 4.6 mph - N/A   Mostly Cloudy
5:15 AM 69.1 °F - 66.2 °F 91% 30.07 in 10.0 mi East 3.5 mph - N/A   Scattered Clouds
5:35 AM 68.7 °F - 66.0 °F 91% 30.08 in 10.0 mi East 4.6 mph - N/A   Clear
5:55 AM 68.2 °F - 65.7 °F 92% 30.08 in 10.0 mi SE 3.5 mph - N/A   Clear
6:15 AM 68.4 °F - 65.8 °F 92% 30.08 in 10.0 mi ESE 3.5 mph - N/A   Clear
6:35 AM 68.4 °F - 65.8 °F 92% 30.07 in 10.0 mi ESE 4.6 mph - N/A   Scattered Clouds
6:55 AM 68.2 °F - 65.8 °F 92% 30.08 in 7.0 mi Calm Calm - N/A   Scattered Clouds
7:15 AM 68.5 °F - 66.2 °F 92% 30.07 in 7.0 mi ESE 3.5 mph - N/A   Scattered Clouds
7:35 AM 69.1 °F - 66.7 °F 92% 30.08 in 7.0 mi ESE 3.5 mph - N/A   Mostly Cloudy
7:55 AM 70.0 °F - 67.1 °F 91% 30.08 in 7.0 mi ESE 4.6 mph - N/A   Overcast
8:15 AM 70.3 °F - 67.3 °F 90% 30.08 in 7.0 mi SE 4.6 mph - N/A   Scattered Clouds
8:35 AM 71.8 °F - 68.0 °F 88% 30.09 in 10.0 mi SE 4.6 mph - N/A   Scattered Clouds
8:55 AM 72.3 °F - 68.2 °F 87% 30.09 in 10.0 mi SE 4.6 mph - N/A   Scattered Clouds
9:15 AM 73.6 °F - 68.7 °F 85% 30.09 in 10.0 mi SE 6.9 mph - N/A   Clear
9:35 AM 75.6 °F - 69.4 °F 81% 30.09 in 10.0 mi SE 5.8 mph - N/A   Clear
9:55 AM - - - N/A% 30.09 in - SSE 4.6 mph - N/A   Unknown
10:15 AM 78.3 °F - 70.3 °F 77% 30.08 in 10.0 mi ESE 6.9 mph - N/A   Scattered Clouds
10:35 AM 79.7 °F - 70.5 °F 73% 30.08 in 10.0 mi SE 6.9 mph - N/A   Scattered Clouds
10:55 AM 79.9 °F - 70.5 °F 73% 30.08 in 10.0 mi SE 6.9 mph - N/A   Clear
11:15 AM 81.0 °F 84.6 °F 70.5 °F 70% 30.08 in 10.0 mi SE 6.9 mph - N/A   Clear
11:35 AM 82.4 °F 86.7 °F 71.1 °F 68% 30.08 in 10.0 mi SE 6.9 mph - N/A   Clear
11:55 AM 82.9 °F 87.2 °F 70.5 °F 66% 30.07 in 10.0 mi SE 9.2 mph - N/A   Clear
12:15 PM 83.7 °F 88.0 °F 70.5 °F 64% 30.06 in 10.0 mi SSE 8.1 mph - N/A   Clear
12:35 PM 84.7 °F 89.7 °F 70.7 °F 63% 30.05 in 10.0 mi ESE 10.4 mph - N/A   Clear
12:55 PM 85.3 °F 90.1 °F 70.3 °F 61% 30.05 in 10.0 mi SSE 6.9 mph - N/A   Scattered Clouds
1:15 PM 86.0 °F 90.4 °F 69.4 °F 58% 30.05 in 10.0 mi SSE 11.5 mph - N/A   Scattered Clouds
1:35 PM 86.5 °F 90.3 °F 68.7 °F 55% 30.04 in 10.0 mi SSE 10.4 mph 16.1 mph N/A   Scattered Clouds
1:55 PM 86.4 °F 89.7 °F 67.8 °F 54% 30.04 in 10.0 mi South 15.0 mph - N/A   Clear
2:15 PM 87.3 °F 90.5 °F 67.8 °F 52% 30.03 in 10.0 mi SSE 16.1 mph - N/A   Clear
2:35 PM 87.3 °F 91.2 °F 68.7 °F 54% 30.03 in 10.0 mi SSE 10.4 mph 16.1 mph N/A   Clear
2:55 PM 88.0 °F 92.5 °F 69.3 °F 54% 30.03 in 10.0 mi SSE 12.7 mph 19.6 mph N/A   Scattered Clouds
3:15 PM 86.9 °F 88.9 °F 65.8 °F 49% 30.03 in 10.0 mi SSE 12.7 mph - N/A   Scattered Clouds
3:35 PM 87.3 °F 90.2 °F 66.9 °F 51% 30.03 in 10.0 mi SSE 11.5 mph 16.1 mph N/A   Scattered Clouds
3:55 PM 86.9 °F 88.6 °F 64.9 °F 48% 30.03 in 10.0 mi SSE 11.5 mph - N/A   Scattered Clouds
4:15 PM 86.5 °F 88.7 °F 65.7 °F 50% 30.02 in 10.0 mi SSE 15.0 mph - N/A   Scattered Clouds
4:35 PM 86.7 °F 89.3 °F 66.4 °F 51% 30.02 in 10.0 mi SSE 13.8 mph - N/A   Scattered Clouds
4:55 PM 86.4 °F 89.4 °F 67.3 °F 53% 30.02 in 10.0 mi SSE 11.5 mph 18.4 mph N/A   Scattered Clouds
5:15 PM 85.6 °F 88.5 °F 67.5 °F 54% 30.02 in 10.0 mi SSE 6.9 mph - N/A   Scattered Clouds
5:35 PM 85.1 °F 87.9 °F 67.3 °F 55% 30.02 in 10.0 mi SSE 11.5 mph 16.1 mph N/A   Scattered Clouds
5:55 PM 85.1 °F 88.2 °F 67.8 °F 56% 30.01 in 10.0 mi SSE 9.2 mph 16.1 mph N/A   Scattered Clouds
6:15 PM 84.9 °F 87.4 °F 66.7 °F 54% 30.01 in 10.0 mi SE 9.2 mph 16.1 mph N/A   Scattered Clouds
6:35 PM 84.6 °F 87.1 °F 66.7 °F 55% 30.00 in 10.0 mi SSE 13.8 mph - N/A   Scattered Clouds
6:55 PM 84.2 °F 86.3 °F 66.0 °F 54% 30.01 in 10.0 mi SSE 11.5 mph 17.3 mph N/A   Clear
7:15 PM 83.3 °F 85.9 °F 67.1 °F 58% 30.00 in 10.0 mi SE 6.9 mph - N/A   Clear
7:35 PM 82.6 °F 85.1 °F 66.7 °F 59% 30.00 in 10.0 mi SE 10.4 mph 18.4 mph N/A   Clear
7:55 PM 82.0 °F 84.5 °F 66.7 °F 60% 30.00 in 10.0 mi SSE 9.2 mph - N/A   Clear
8:15 PM 81.0 °F 83.4 °F 67.1 °F 63% 30.00 in 10.0 mi SE 5.8 mph - N/A   Clear
8:35 PM 79.9 °F - 67.1 °F 65% 29.99 in 10.0 mi SE 8.1 mph - N/A   Clear
8:55 PM 79.7 °F - 67.1 °F 65% 30.00 in 10.0 mi SE 6.9 mph - N/A   Clear
9:15 PM 79.3 °F - 67.1 °F 66% 30.00 in 10.0 mi SE 9.2 mph - N/A   Clear
9:35 PM 79.0 °F - 67.5 °F 68% 30.01 in 10.0 mi SE 8.1 mph - N/A   Clear
9:55 PM 78.8 °F - 68.0 °F 69% 30.01 in 10.0 mi SE 8.1 mph - N/A   Clear
10:15 PM 79.0 °F - 68.0 °F 69% 30.01 in 10.0 mi SE 8.1 mph - N/A   Clear
10:35 PM 78.8 °F - 68.0 °F 69% 30.02 in 10.0 mi SSE 9.2 mph - N/A   Clear
10:55 PM 79.2 °F - 67.8 °F 68% 30.02 in 10.0 mi SSE 10.4 mph 18.4 mph N/A   Clear
11:15 PM 79.7 °F - 67.6 °F 66% 30.02 in 10.0 mi SSE 11.5 mph - N/A   Clear
11:35 PM 79.2 °F - 67.6 °F 68% 30.02 in 10.0 mi SSE 10.4 mph - N/A   Clear
11:55 PM 78.4 °F - 67.6 °F 69% 30.02 in 10.0 mi SSE 9.2 mph - N/A   Clear